Weather History for Newcastle, WY

Change the Weather History Date:

Saturday, September 28, 2013

  Actual Average (KCUT) Record (KCUT)
Temperature  
Mean Temperature 46 °F 49 °F  
Max Temperature 62 °F 61 °F 85 °F (2010)
Min Temperature 30 °F 36 °F 15 °F (1984)
Degree Days  
Heating Degree Days 19 16  
Month to date heating degree days 298  
Since 1 July heating degree days 452  
Cooling Degree Days 0 0  
Month to date cooling degree days 11  
Year to date cooling degree days 177  
Moisture  
Dew Point 32 °F    
Average Humidity 66    
Maximum Humidity 100    
Minimum Humidity 29    
Precipitation  
Precipitation 0.00 in 0.03 in 1.08 in (1971)
Month to date precipitation 1.50  
Year to date precipitation 16.42  
Sea Level Pressure  
Sea Level Pressure 30.00 in    
Wind  
Wind Speed 4 mph (West)    
Max Wind Speed 17 mph    
Max Gust Speed 28 mph    
T = Trace of Precipitation, MM = Missing Value Source: NWS Daily Summary

Daily Weather History Graph

Daily Weather History Graph

Search for Another Location

Airport:

Trip Planner

Search our weather history database for the weather conditions in past years. The results will help you decide how hot, cold, wet, or windy it might be!

Date:

Astronomy

Sep. 28, 2013 Rise Set
Actual Time 6:51 AM MDT 6:43 PM MDT
Civil Twilight 6:23 AM MDT 7:11 PM MDT
Nautical Twilight 5:49 AM MDT 7:45 PM MDT
Astronomical Twilight 5:15 AM MDT 8:19 PM MDT
Moon 12:31 AM MDT (9/28) 3:13 PM MDT (9/28)
Length of Visible Light 12h 48m
Length of Day
11h 51m
Waning Crescent, 35% of the Moon is Illuminated
Sep 28
Waning Crescent
Oct 4
New
Oct 11
First Quarter
Oct 18
Full
Oct 26
Last Quarter

Hourly Weather History & Observations

Time (MDT) Temp. Windchill Dew Point Humidity Pressure Visibility Wind Dir Wind Speed Gust Speed Precip Events Conditions
12:15 AM 35.6 °F 31.7 °F 33.8 °F 93% 29.96 in - NW 4.6 mph - N/A   Unknown
12:35 AM 35.6 °F 32.8 °F 33.8 °F 93% 29.95 in - NW 3.5 mph - N/A   Unknown
12:55 AM 33.8 °F 30.8 °F 33.8 °F 100% 29.95 in - WNW 3.5 mph - N/A   Mostly Cloudy
1:15 AM 33.8 °F - 32.0 °F 93% 29.97 in - Calm Calm - N/A   Overcast
1:35 AM 33.8 °F 29.6 °F 33.8 °F 100% 29.97 in - NW 4.6 mph - N/A   Mostly Cloudy
1:55 AM 33.8 °F 30.8 °F 33.8 °F 100% 29.98 in - NNW 3.5 mph - N/A   Unknown
2:15 AM 35.6 °F - 33.8 °F 93% 29.98 in - Calm Calm - N/A   Mostly Cloudy
2:35 AM 35.6 °F 31.7 °F 33.8 °F 93% 29.98 in - NNW 4.6 mph - N/A   Unknown
2:55 AM 35.6 °F - 33.8 °F 93% 29.98 in - Calm Calm - N/A   Unknown
3:15 AM 35.6 °F - 33.8 °F 93% 29.97 in - Calm Calm - N/A   Mostly Cloudy
3:35 AM 33.8 °F - 32.0 °F 93% 29.98 in - Calm Calm - N/A   Unknown
3:55 AM 33.8 °F - 32.0 °F 93% 29.98 in - Calm Calm - N/A   Unknown
4:15 AM 33.8 °F - 32.0 °F 93% 29.98 in - Calm Calm - N/A   Unknown
4:35 AM 32.0 °F 28.7 °F 32.0 °F 100% 29.98 in - ENE 3.5 mph - N/A   Unknown
4:55 AM 32.0 °F 26.4 °F 32.0 °F 100% 29.98 in - North 5.8 mph - N/A   Unknown
5:15 AM 32.0 °F - 32.0 °F 100% 29.99 in - Calm Calm - N/A   Unknown
5:35 AM 32.0 °F 27.5 °F 30.2 °F 93% 29.99 in - SE 4.6 mph - N/A   Unknown
5:55 AM 32.0 °F 27.5 °F 30.2 °F 93% 30.00 in - SE 4.6 mph - N/A   Unknown
6:15 AM 30.2 °F 26.7 °F 30.2 °F 100% 30.00 in - SE 3.5 mph - N/A   Unknown
6:35 AM 30.2 °F 26.7 °F 30.2 °F 100% 30.00 in - ESE 3.5 mph - N/A   Unknown
6:55 AM 30.2 °F 26.7 °F 30.2 °F 100% 30.00 in - ENE 3.5 mph - N/A   Unknown
7:15 AM 32.0 °F 28.7 °F 32.0 °F 100% 30.01 in - North 3.5 mph - N/A   Unknown
7:35 AM 32.0 °F - 30.2 °F 93% 30.02 in - Calm Calm - N/A   Unknown
7:55 AM 32.0 °F - 32.0 °F 100% 30.02 in - Calm Calm - N/A   Unknown
8:15 AM 33.8 °F - 32.0 °F 93% 30.02 in - Calm Calm - N/A   Unknown
8:35 AM 33.8 °F - 32.0 °F 93% 30.02 in - Calm Calm - N/A   Unknown
8:55 AM 37.4 °F - 33.8 °F 87% 30.02 in - Calm Calm - N/A   Unknown
9:15 AM 41.0 °F 38.0 °F 33.8 °F 76% 30.02 in - SSE 4.6 mph - N/A   Clear
9:35 AM 41.0 °F - 32.0 °F 70% 30.03 in - Calm Calm - N/A   Clear
9:55 AM 41.0 °F - 32.0 °F 70% 30.03 in - Calm Calm - N/A   Clear
10:15 AM 42.8 °F - 32.0 °F 66% 30.03 in - Calm Calm - N/A   Clear
10:35 AM 44.6 °F 43.1 °F 33.8 °F 66% 30.03 in - WSW 3.5 mph - N/A   Clear
10:55 AM 44.6 °F 43.1 °F 33.8 °F 66% 30.03 in - WSW 3.5 mph - N/A   Clear
11:15 AM 46.4 °F - 33.8 °F 62% 30.02 in - Calm Calm - N/A   Clear
11:35 AM 50.0 °F - 33.8 °F 54% 30.02 in - SE 4.6 mph - N/A   Clear
11:55 AM 53.6 °F - 32.0 °F 44% 30.00 in - Calm Calm - N/A   Clear
12:15 PM 55.4 °F - 30.2 °F 38% 30.00 in - West 9.2 mph 20.7 mph N/A   Clear
12:35 PM 57.2 °F - 28.4 °F 33% 29.99 in - West 11.5 mph 16.1 mph N/A   Clear
12:55 PM 59.0 °F - 30.2 °F 34% 29.99 in - West 10.4 mph 16.1 mph N/A   Clear
1:15 PM 59.0 °F - 28.4 °F 31% 29.98 in - WNW 13.8 mph 21.9 mph N/A   Clear
1:35 PM 59.0 °F - 28.4 °F 31% 29.98 in - WSW 9.2 mph 21.9 mph N/A   Clear
1:55 PM 59.0 °F - 28.4 °F 31% 29.99 in - WSW 12.7 mph 20.7 mph N/A   Clear
2:15 PM 60.8 °F - 28.4 °F 29% 29.98 in - WSW 11.5 mph 20.7 mph N/A   Clear
2:35 PM 60.8 °F - 30.2 °F 31% 29.98 in - WSW 13.8 mph 18.4 mph N/A   Clear
2:55 PM 60.8 °F - 28.4 °F 29% 29.98 in - WSW 12.7 mph - N/A   Clear
3:15 PM 60.8 °F - 30.2 °F 31% 29.98 in - West 16.1 mph 20.7 mph N/A   Clear
3:35 PM 60.8 °F - 30.2 °F 31% 29.98 in - West 17.3 mph 27.6 mph N/A   Clear
3:55 PM 62.6 °F - 32.0 °F 32% 29.98 in - West 13.8 mph 23.0 mph N/A   Clear
4:15 PM 60.8 °F - 32.0 °F 34% 29.98 in - WSW 16.1 mph 20.7 mph N/A   Clear
4:35 PM 60.8 °F - 32.0 °F 34% 29.97 in - West 15.0 mph 20.7 mph N/A   Clear
4:55 PM 60.8 °F - 30.2 °F 31% 29.98 in - West 9.2 mph - N/A   Clear
5:15 PM 60.8 °F - 32.0 °F 34% 29.98 in - West 15.0 mph 19.6 mph N/A   Clear
5:35 PM 60.8 °F - 30.2 °F 31% 29.98 in - West 13.8 mph 18.4 mph N/A   Clear
5:55 PM 60.8 °F - 30.2 °F 31% 29.99 in - WSW 12.7 mph 17.3 mph N/A   Clear
6:15 PM 59.0 °F - 30.2 °F 34% 29.99 in - West 5.8 mph - N/A   Clear
6:35 PM 57.2 °F - 32.0 °F 38% 29.99 in - WSW 9.2 mph - N/A   Clear
6:55 PM 53.6 °F - 33.8 °F 47% 30.00 in - WSW 11.5 mph - N/A   Clear
7:15 PM 53.6 °F - 33.8 °F 47% 30.00 in - WSW 6.9 mph - N/A   Clear
7:35 PM 51.8 °F - 33.8 °F 50% 30.02 in - West 3.5 mph - N/A   Clear
7:55 PM 50.0 °F - 33.8 °F 54% 30.02 in - North 3.5 mph - N/A   Clear
8:15 PM 51.8 °F - 33.8 °F 50% 30.01 in - Calm Calm - N/A   Clear
8:35 PM 50.0 °F - 33.8 °F 54% 30.02 in - North 3.5 mph - N/A   Clear
8:55 PM 51.8 °F - 33.8 °F 50% 30.02 in - North 3.5 mph - N/A   Clear
9:15 PM 50.0 °F - 33.8 °F 54% 30.02 in - Calm Calm - N/A   Clear
9:35 PM 50.0 °F - 33.8 °F 54% 30.02 in - Calm Calm - N/A   Clear
9:55 PM 46.4 °F 45.2 °F 33.8 °F 62% 30.02 in - ENE 3.5 mph - N/A   Clear
10:15 PM 50.0 °F - 35.6 °F 58% 30.02 in - Calm Calm - N/A   Clear
10:35 PM 44.6 °F 43.1 °F 33.8 °F 66% 30.02 in - ENE 3.5 mph - N/A   Clear
10:55 PM 44.6 °F 41.4 °F 35.6 °F 71% 30.02 in - ESE 5.8 mph - N/A   Clear
11:15 PM 44.6 °F 40.2 °F 35.6 °F 71% 30.02 in - ESE 8.1 mph - N/A   Clear
11:35 PM 46.4 °F 43.5 °F 35.6 °F 66% 30.01 in - East 5.8 mph - N/A   Clear
11:55 PM 46.4 °F 44.3 °F 35.6 °F 66% 30.00 in - SE 4.6 mph - N/A   Clear